Flag for U.S.A. Weather past 2 weeks in Sedona, Arizona, U.S.A.

Now
65 °F

Broken clouds.


Feels Like: 65 °F
Forecast: 66 / 84 °F
Wind: 10 mph from East

Location: Flagstaff Pulliam Airport

Current Time: Aug 31, 2015 at 7:17:16 PM

Latest Report: Aug 31, 2015 at 5:57 PM


Visibility: 10 mi

Pressure: 30.03 "Hg (25.84 "Hg at 1282m altitude)

Humidity: 63%

Dew point: 52 °F

Location of SedonaLocation

Historic Weather in Sedona — Graph

°F

Sedona temperature yesterday

Maximum temperature yesterday: 77 °F (at 12:57 PM)
Minimum temperature yesterday: 51 °F (at 4:57 AM)
Average temperature yesterday: 63 °F

Past Weeks' High & Low Weather Summary

 TemperatureHumidityPressure
High84 °F (Aug 17, 3:57 PM)100% (Aug 25, 11:57 PM)30.37 "Hg (Aug 25, 11:57 PM)
Low47 °F (Aug 29, 5:57 AM)15% (Aug 19, 2:57 PM)29.82 "Hg (Aug 18, 4:57 PM)
Average65 °F61%30.00 "Hg
* Reported Aug 16 5:57 PM — Aug 31 5:57 PM, Sedona, Weather by CustomWeather, © 2015

Note: Actual official high and low records may vary slightly from our data, if they occured in-between our weather recording intervals... More about our weather records

Advertising

Sedona weather history for previous 24 hours

 ConditionsComfort  
Time TempWeatherWind HumidityBarometerVisibility
5:57 PM
Mon, Aug 31
65 °FBroken clouds.10 mph63%30.03 "Hg10 mi
4:57 PM65 °FPartly sunny.9 mph66%30.03 "Hg10 mi
3:57 PM68 °FThunderstorms. Broken clouds.3 mph65%30.01 "Hg10 mi
2:57 PM69 °FBroken clouds.3 mph61%30.01 "Hg10 mi
1:57 PM69 °FThundershowers. Broken clouds.9 mph59%30.01 "Hg10 mi
12:57 PM71 °FSunny.13 mph53%30.01 "Hg10 mi
11:57 AM73 °FPassing clouds.13 mph53%30.02 "Hg10 mi
10:57 AM72 °FPassing clouds.8 mph55%30.04 "Hg10 mi
9:57 AM69 °FSunny.8 mph63%30.05 "Hg10 mi
8:57 AM66 °FSunny.6 mph73%30.05 "Hg10 mi
7:57 AM59 °FSunny.No wind90%30.06 "Hg10 mi
6:57 AM55 °FSunny.No wind96%30.04 "Hg10 mi
5:57 AM50 °FPassing clouds.No wind100%30.03 "Hg10 mi
4:57 AM51 °FClear.No wind100%30.00 "Hg10 mi
3:57 AM51 °FClear.No wind100%29.99 "Hg10 mi
2:57 AM52 °FClear.No wind100%29.99 "Hg10 mi
1:57 AM54 °FPassing clouds.No wind100%30.00 "Hg10 mi
12:57 AM55 °FPassing clouds.No wind96%29.98 "Hg10 mi
11:57 PM
Sun, Aug 30
55 °FPassing clouds.No wind96%29.97 "Hg10 mi
10:57 PM56 °FPartly cloudy.5 mph97%29.98 "Hg10 mi
9:57 PM58 °FOvercast.7 mph93%29.97 "Hg10 mi
8:57 PM57 °FHeavy rain. Fog.10 mph93%30.00 "Hg2 mi
7:57 PM58 °FThunderstorms. Partly cloudy.3 mph87%29.99 "Hg10 mi
7:04 PM62 °FThunderstorms. Partly cloudy.3 mph93%30.25 "Hg10 mi
Weather by CustomWeather, © 2015

See weather overviewHow to use our weather pages